SCISAT 1

Satellite information

Favourite Embed

Satellite Type and Status

PAYLOADIN ORBIT

Key statistics

Satellite SCISAT 1 at a glance.

Uptime

8109

Days in orbit

Revolutions

≈ 14.8

Per day

Orbit

LEO

Low Earth Orbit

Inclination

73.9

Latest

Satellite identification and parameters

Extended collection of information and parameters for SCISAT 1.

Object identification

Identified? True

Debris? False

Object name: SCISAT 1

International designator: 2003-036A

Object number (NORAD): 27858

Object ID (CCSDS): 27858

Country: CANADA (CA)

Current information (Y/N): Y

RCS size: MEDIUM

Orbital parameters

Period: 97.233 minutes

Inclination: 73.9285 deg

SMA: 7004.368 km

Apoapsis: 630.895 km

Periapsis: 621.571 km

RAAN: 278.5097 deg

Eccentricy: 0.00066557

Argument of periapsis: 24.9022 deg

Mean anomaly: 335.2474 deg

Mean motion: 14.80980459 rev/day

Mean motion (dot): 0.00001323 rev/day2

B* drag term: 0.00017543118 1/REarth

Two-line elements (TLE)

Creation date: Oct. 25, 2025, 3:11 a.m.

Reference frame: TEME

Reference center: EARTH

Epoch: Oct. 24, 2025, 11:44 p.m. UTC

TLE line 0: 0 SCISAT 1

TLE line 1: 1 27858U 03036A 25297.98946197 .00001323 00000-0 17543-3 0 9992

TLE line 2: 2 27858 73.9285 278.5097 0006656 24.9022 335.2474 14.80980459196626

Live tracking on map

Real-time ground track for satellite SCISAT 1.

In-orbit conjunctions

There are no conjunctions computed for SCISAT 1, at the moment. Check back to stay up to date, as we update our databases every day.

Go to all conjunctions

Associated space launch

SCISAT 1 was lifted into orbit during the mission ‘Pegasus XL | SCISAT-1’, on board a Pegasus XL space rocket.

The launch took place on Aug. 13, 2003, 2:09 a.m. from Vandenberg Space Force Base.

For more information about the launch, click the button.

Launch to space Pegasus XL | SCISAT-1
Pegasus XL | SCISAT-1

Agency: N/A

Status: Launch Successful

Launch date: Aug. 13, 2003, 2:09 a.m. UTC

Rocket: Pegasus XL

Launch pad: Vandenberg Space Force Base

Location: Air launch to orbit

...

Latest news about this satellite

There are no fresh news available about this satellite. Check back as we update our databases every day.


Newsletter sign-up

Weekly statistics, charts and insights to help you stay on top of the space industry.